Content
SEND FEEDBACK

Daily
Averages
Monthly
Summary
Australia

AMBERLEY, QUEENSLAND


Home > Oceania > Australia > Queensland
Elevation: 88 feet     Latitude: 27 38S     Longitude: 152 42E

WEATHER
 
SELECT A DAY
Number of Records: 167,555;   Date Range: 10/22/03 - 8/31/14
 
SHARE

PRINT THIS DATA

[ ← Previous Day ]
WEATHER ALMANAC - FEBRUARY 13, 2013
[ Next Day → ]
[ °C ]   °F
Weather ElementAverageHighLow
Temperature67.1 °F80.6 °F (5:00 pm) (3:30 am)
Dewpoint57.1 °F64.4 °F (8:30 am) (7:00 pm)
Humidity71 %94 % (1:00 am)42 % (5:00 pm)
Barometer28.17 in30.09 in (9:30 am) (7:00 pm)
Wind Speed7.7 mph17.3 mph (9:30 am)
Weather ElementAverage
Visibility6.2 mi
Wind DirectionESE (115.8 °)

Weather ElementTotal
Precipitation---
Heating Degree Days24.7 (Base 65)
Averaged from 48 records on February 13, 2013
WEATHER CONDITIONS BREAKOUT
WIND DIRECTION BREAKOUT
WEATHER BY HOUR - FEBRUARY 13, 2013
[ °C ]   °F
Local TimeTemperatureDewpointHumidityBarometerVisibilityWind DirectionWind SpeedGust SpeedPrecipitationEventsConditions
12:30 AM66.2 °F60.8 °F83 %30.04 in6.2 miCalm
1:00 AM62.6 °F60.8 °F94 %30.01 in6.2 miCalm
1:30 AM62.6 °F60.8 °F94 %30.01 in6.2 miCalm
2:00 AM64.4 °F60.8 °F88 %30.01 in6.2 miCalm
2:30 AM64.4 °F60.8 °F88 %30.01 in6.2 miWest (260°)4.6 mph
3:00 AM64.4 °F60.8 °F88 %30.01 in6.2 miWest (260°)5.8 mph
3:30 AM0.0 °F0.0 °F6.2 miCalm
4:00 AM60.8 °F59.0 °F94 %30.01 in6.2 miWest (260°)3.5 mph
4:30 AM60.8 °F59.0 °F94 %30.01 in6.2 miWest (270°)4.6 mph
5:00 AM60.8 °F59.0 °F94 %30.01 in6.2 miCalm
5:30 AM60.8 °F59.0 °F94 %30.01 in6.2 miCalm
6:00 AM62.6 °F60.8 °F94 %30.04 in6.2 miSW (220°)3.5 mphPartly Cloudy
6:30 AM66.2 °F60.8 °F83 %30.04 in6.2 miSW (220°)4.6 mphPartly Cloudy
7:00 AM68.0 °F62.6 °F83 %30.06 in6.2 miSouth (190°)5.8 mphPartly Cloudy
7:30 AM73.4 °F62.6 °F69 %30.06 in6.2 miSouth (190°)6.9 mphScattered Clouds
8:00 AM75.2 °F62.6 °F65 %30.06 in6.2 miSouth (180°)11.5 mphScattered Clouds
8:30 AM77.0 °F64.4 °F65 %30.06 in6.2 miSouth (170°)12.7 mphScattered Clouds
9:00 AM77.0 °F62.6 °F61 %30.06 in6.2 miSouth (180°)12.7 mphMostly Cloudy
9:30 AM75.2 °F60.8 °F61 %30.09 in6.2 miSE (130°)17.3 mphMostly Cloudy
10:00 AM77.0 °F62.6 °F61 %30.09 in6.2 miESE (120°)16.1 mphMostly Cloudy
10:30 AM0.0 °F0.0 °F6.2 miESE (110°)12.7 mphMostly Cloudy
11:00 AM77.0 °F60.8 °F57 %30.06 in6.2 miESE (110°)15.0 mphMostly Cloudy
11:30 AM78.8 °F60.8 °F54 %30.06 in6.2 miEast (100°)9.2 mphMostly Cloudy
12:00 PM78.8 °F60.8 °F54 %30.06 in6.2 miESE (110°)11.5 mphMostly Cloudy
12:38 PM75.2 °F62.6 °F65 %30.06 in6.2 miSouth (170°)15.0 mphRainRain Showers
12:52 PM69.8 °F64.4 °F83 %30.06 in6.2 miESE (120°)16.1 mphMostly Cloudy
1:00 PM69.8 °F64.4 °F83 %30.06 in5.6 miEast (90°)12.7 mphMostly Cloudy
1:30 PM73.4 °F62.6 °F69 %30.06 in6.2 miESE (110°)6.9 mphMostly Cloudy
2:00 PM77.0 °F62.6 °F61 %30.04 in6.2 miEast (100°)6.9 mphMostly Cloudy
2:30 PM77.0 °F62.6 °F61 %30.04 in6.2 miEast (100°)6.9 mphMostly Cloudy
3:00 PM78.8 °F60.8 °F54 %30.04 in6.2 miEast (100°)8.1 mphMostly Cloudy
3:30 PM78.8 °F62.6 °F57 %30.04 in6.2 miEast (80°)9.2 mphMostly Cloudy
4:00 PM78.8 °F59.0 °F51 %30.01 in6.2 miESE (110°)11.5 mphMostly Cloudy
4:30 PM78.8 °F57.2 °F47 %30.04 in6.2 miENE (70°)10.4 mphMostly Cloudy
5:00 PM80.6 °F55.4 °F42 %30.01 inEast (90°)11.5 mphClear
5:30 PM78.8 °F57.2 °F47 %30.01 in6.2 miEast (80°)11.5 mphScattered Clouds
6:00 PM77.0 °F59.0 °F54 %30.04 in6.2 miENE (70°)12.7 mph
6:30 PM75.2 °F62.6 °F65 %30.04 in6.2 miEast (80°)11.5 mph
7:00 PM75.2 °F60.8 °F61 %30.06 in6.2 miEast (90°)9.2 mphScattered Clouds
7:30 PM75.2 °F59.0 °F57 %30.06 in6.2 miEast (90°)11.5 mphMostly Cloudy
8:00 PM71.6 °F60.8 °F69 %30.06 in6.2 miEast (90°)8.1 mphScattered Clouds
8:30 PM71.6 °F60.8 °F69 %30.09 in6.2 miESE (110°)6.9 mph
9:00 PM69.8 °F60.8 °F73 %30.09 in6.2 miESE (110°)4.6 mph
9:30 PM68.0 °F60.8 °F78 %30.09 in6.2 miEast (100°)4.6 mph
10:00 PM69.8 °F59.0 °F68 %30.09 in6.2 miSE (130°)5.8 mph
10:30 PM0.0 °F0.0 °F6.2 miCalm
11:00 PM68.0 °F60.8 °F78 %30.09 in6.2 miSouth (180°)3.5 mphMostly Cloudy
11:30 PM66.2 °F60.8 °F83 %30.09 in6.2 miSSW (210°)5.8 mphScattered Clouds
Hourly data recorded from YAMB, located miles away from Amberley, Queensland







STORIES FROM OUR PARTNERS